sat.trackr.live / text

‹ back to catalog

STARLINK-32611

NORAD 61976 · 2024-210T

PAYLOAD ACTIVE UNKNOWN

§ Identity

Operator
Country
US
Launch date
2024-11-14
Launch site
AFETR
Launch vehicle
Mass (kg)
RCS (m²)

Purposes: comms

External: N2YO · Heavens-Above · Gunter

§ Orbital elements

Epoch: 2026-09-21T09:56:48.271776Z

Period
94.27 min
Inclination
43.0014°
Eccentricity
0.0000698
Mean motion
15.27585452 rev/d
Perigee alt
482.6 km
Apogee alt
483.5 km
Semi-major
6,861.2 km
B*
2.6719e-4
RAAN
154.4610°
Arg perigee
285.9243°
Mean anomaly
74.1532°
Rev number
10,481

§ Raw data

STARLINK-326111 61976U 24210T   26264.41444759  .00007099  00000+0  26719-3 0  99982 61976  43.0014 154.4610 0000698 285.9243  74.1532 15.27585452104810

JSON: /api/v1/satellites/61976 · /tle

For live sub-satellite position, see the globe view (requires WebGL).

§ Visibility from observer

Set your observer location to see the next 7 days of passes ≥ 10°. The values pass through the URL so the page stays shareable.

No JS? Fill the form by hand. The geolocation button needs JavaScript.